Location: ?????
(42.2640°N, 43.4211°E)
Time: 15:22:57
(UTC+00:00)

S3M - Pass Details

Date: 07 August 2020
Orbit: 948 x 1005 km, 83.0° (Epoch: 19 September)

Event Time Altitude Azimuth Distance (km) Brightness Sun altitude
Rises 01:01:39 0° 180° (S) 3,700 6.7 -11.2°
Reaches altitude 10° 01:04:10 10° 178° (S) 2,760 6.1 -10.8°
Maximum altitude 01:10:29 75° 95° (E) 1,042 4.3 -9.8°
Drops below altitude 10° 01:16:53 10° 11° (N) 2,789 7.1 -8.8°
Sets 01:19:26 0° 10° (N) 3,742 7.7 -8.4°
